| time (UTC) | temp F | wind direction | speed MPH | gust MPH | rain 1hr in | rain 24hr in | rain mn in | humidity % | barometer mb |
| 20260831222420 | 76 | 357 | 0.0 | 0.0 | 0.00 | 0.16 | 0.16 | 86 | |
| 20260831221915 | 77 | 357 | 0.0 | 0.0 | 0.00 | 0.16 | 0.16 | 86 | |
| 20260831221411 | 77 | 356 | 0.0 | 0.0 | 0.00 | 0.16 | 0.16 | 86 | |
| 20260831220906 | 77 | 357 | 0.0 | 0.0 | 0.00 | 0.16 | 0.16 | 86 | |
| 20260831220401 | 77 | 350 | 0.0 | 0.0 | 0.00 | 0.16 | 0.16 | 86 | |
| 20260831215856 | 77 | 355 | 0.0 | 2.0 | 0.00 | 0.16 | 0.16 | 85 | |
| 20260831215352 | 77 | 355 | 0.0 | 0.0 | 0.00 | 0.16 | 0.16 | 85 | |
| 20260831214848 | 77 | 359 | 0.0 | 1.0 | 0.00 | 0.16 | 0.16 | 84 | |
| 20260831214345 | 77 | 354 | 0.0 | 1.0 | 0.00 | 0.16 | 0.16 | 85 | |
| 20260831213840 | 77 | 346 | 0.0 | 3.0 | 0.00 | 0.16 | 0.16 | 85 | |
| 20260831213336 | 79 | 357 | 1.0 | 2.0 | 0.00 | 0.16 | 0.16 | 83 | |
| 20260831212831 | 79 | 358 | 1.0 | 3.0 | 0.00 | 0.16 | 0.16 | 82 | |
| 20260831212328 | 79 | 356 | 0.0 | 1.0 | 0.00 | 0.16 | 0.16 | 84 | |
| 20260831211827 | 77 | 349 | 0.0 | 1.0 | 0.00 | 0.16 | 0.16 | 87 | |
| 20260831211322 | 76 | 295 | 2.0 | 3.0 | 0.00 | 0.16 | 0.16 | 89 | |
| 20260831210821 | 75 | 12 | 3.0 | 5.0 | 0.00 | 0.16 | 0.16 | 95 | |
| 20260831210318 | 75 | 277 | 0.0 | 1.0 | 0.00 | 0.16 | 0.16 | 96 | |
| 20260831205817 | 75 | 311 | 0.0 | 1.0 | 0.00 | 0.16 | 0.16 | 97 | |
| 20260831205313 | 74 | 341 | 0.0 | 1.0 | 0.00 | 0.16 | 0.16 | 98 | |
| 20260831204808 | 74 | 342 | 1.0 | 1.0 | 0.00 | 0.16 | 0.16 | 98 | |
| 20260831204307 | 73 | 312 | 0.0 | 1.0 | 0.00 | 0.16 | 0.16 | 98 | |
| 20260831203806 | 73 | 313 | 0.0 | 0.0 | 0.00 | 0.16 | 0.16 | 98 | |
| 20260831203255 | 73 | 343 | 0.0 | 0.0 | 0.00 | 0.16 | 0.16 | 98 | |
| 20260831202753 | 73 | 330 | 0.0 | 0.0 | 0.00 | 0.16 | 0.16 | 98 | |
| 20260831202248 | 73 | 315 | 1.0 | 1.0 | 0.00 | 0.16 | 0.16 | 98 | |
| 20260831201743 | 73 | 267 | 2.0 | 2.0 | 0.00 | 0.16 | 0.16 | 98 | |
| 20260831201242 | 73 | 333 | 0.0 | 0.0 | 0.00 | 0.16 | 0.16 | 98 | |
| 20260831200738 | 73 | 311 | 0.0 | 1.0 | 0.00 | 0.16 | 0.16 | 98 | |
| 20260831200232 | 73 | 179 | 2.0 | 2.0 | 0.00 | 0.16 | 0.16 | 98 | |
| 20260831195728 | 73 | 260 | 2.0 | 3.0 | 0.00 | 0.16 | 0.16 | 98 | |
| 20260831195224 | 73 | 343 | 0.0 | 2.0 | 0.07 | 0.16 | 0.16 | 98 | |
| 20260831194718 | 73 | 259 | 1.0 | 3.0 | 0.00 | 0.15 | 0.15 | 98 | |
| 20260831194214 | 73 | 296 | 1.0 | 1.0 | 0.00 | 0.15 | 0.15 | 98 | |
| 20260831193707 | 73 | 325 | 0.0 | 1.0 | 0.00 | 0.15 | 0.15 | 98 | |
| 20260831193203 | 73 | 222 | 1.0 | 1.0 | 0.00 | 0.15 | 0.15 | 98 | |
| 20260831192658 | 72 | 342 | 0.0 | 1.0 | 0.00 | 0.15 | 0.15 | 98 | |
| 20260831192153 | 72 | 339 | 0.0 | 2.0 | 0.00 | 0.15 | 0.15 | 99 | |
| 20260831191649 | 72 | 338 | 0.0 | 2.0 | 0.00 | 0.15 | 0.15 | 98 | |
| 20260831191145 | 72 | 303 | 1.0 | 1.0 | 0.00 | 0.15 | 0.15 | 99 | |
| 20260831190640 | 72 | 343 | 0.0 | 1.0 | 0.00 | 0.15 | 0.15 | 99 | |
| 20260831190139 | 72 | 285 | 1.0 | 2.0 | 0.00 | 0.15 | 0.15 | 99 | |
| 20260831185634 | 71 | 330 | 0.0 | 1.0 | 0.00 | 0.15 | 0.15 | 99 | |
| 20260831185130 | 71 | 330 | 0.0 | 1.0 | 0.00 | 0.15 | 0.15 | 99 | |
| 20260831184630 | 71 | 347 | 0.0 | 0.0 | 0.00 | 0.15 | 0.15 | 99 | |
| 20260831184126 | 71 | 308 | 0.0 | 1.0 | 0.00 | 0.15 | 0.15 | 99 | |
| 20260831183625 | 71 | 336 | 0.0 | 1.0 | 0.00 | 0.15 | 0.15 | 99 | |
| 20260831183124 | 71 | 331 | 0.0 | 0.0 | 0.00 | 0.15 | 0.15 | 99 | |
| 20260831182623 | 71 | 331 | 0.0 | 0.0 | 0.00 | 0.15 | 0.15 | 99 | |
| 20260831182120 | 70 | 329 | 1.0 | 1.0 | 0.00 | 0.15 | 0.15 | 99 | |
| 20260831181619 | 71 | 305 | 0.0 | 1.0 | 0.00 | 0.15 | 0.15 | 99 | |
| 20260831181114 | 70 | 312 | 1.0 | 1.0 | 0.00 | 0.15 | 0.15 | 99 | |
| 20260831180609 | 70 | 317 | 1.0 | 1.0 | 0.00 | 0.15 | 0.15 | 99 | |
| 20260831180104 | 70 | 328 | 0.0 | 1.0 | 0.00 | 0.15 | 0.15 | 99 | |
| 20260831175559 | 70 | 335 | 0.0 | 1.0 | 0.00 | 0.15 | 0.15 | 99 | |
| 20260831175056 | 70 | 349 | 0.0 | 0.0 | 0.00 | 0.15 | 0.15 | 99 | |
| 20260831174550 | 70 | 337 | 1.0 | 1.0 | 0.00 | 0.15 | 0.15 | 99 | |
| 20260831174044 | 70 | 340 | 0.0 | 1.0 | 0.00 | 0.15 | 0.15 | 99 | |
| 20260831173543 | 70 | 319 | 1.0 | 1.0 | 0.05 | 0.15 | 0.15 | 99 | |
| 20260831173039 | 70 | 323 | 0.0 | 0.0 | 0.05 | 0.15 | 0.15 | 99 | |
| 20260831172534 | 70 | 332 | 0.0 | 1.0 | 0.00 | 0.14 | 0.14 | 99 | |
| 20260831172029 | 69 | 336 | 0.0 | 1.0 | 0.00 | 0.14 | 0.14 | 99 | |
| 20260831171524 | 69 | 328 | 0.0 | 0.0 | 0.00 | 0.14 | 0.14 | 99 | |
| 20260831171021 | 69 | 335 | 0.0 | 0.0 | 0.00 | 0.14 | 0.14 | 99 | |
| 20260831170517 | 69 | 321 | 0.0 | 0.0 | 0.00 | 0.14 | 0.14 | 99 | |
| 20260831170015 | 69 | 330 | 0.0 | 0.0 | 0.00 | 0.14 | 0.14 | 99 | |
| 20260831165514 | 69 | 341 | 0.0 | 0.0 | 0.00 | 0.14 | 0.14 | 99 | |
| 20260831165012 | 69 | 343 | 0.0 | 0.0 | 0.00 | 0.14 | 0.14 | 99 | |
| 20260831164507 | 69 | 346 | 0.0 | 0.0 | 0.00 | 0.14 | 0.14 | 99 | |
| 20260831164002 | 69 | 341 | 0.0 | 0.0 | 0.00 | 0.14 | 0.14 | 99 | |
| 20260831163457 | 69 | 343 | 0.0 | 0.0 | 0.00 | 0.14 | 0.14 | 99 | |
| 20260831162955 | 69 | 342 | 0.0 | 0.0 | 0.00 | 0.14 | 0.14 | 99 | |
| 20260831162451 | 69 | 312 | 0.0 | 0.0 | 0.00 | 0.14 | 0.14 | 99 | |
| 20260831161949 | 69 | 337 | 0.0 | 0.0 | 0.00 | 0.14 | 0.14 | 99 | |
| 20260831161446 | 68 | 339 | 0.0 | 0.0 | 0.00 | 0.14 | 0.14 | 99 | |
| 20260831160942 | 68 | 311 | 0.0 | 0.0 | 0.00 | 0.14 | 0.14 | 99 | |
| 20260831160441 | 68 | 316 | 0.0 | 0.0 | 0.00 | 0.14 | 0.14 | 99 | |
| 20260831155936 | 68 | 343 | 0.0 | 0.0 | 0.00 | 0.14 | 0.14 | 99 | |
| 20260831155436 | 68 | 344 | 0.0 | 0.0 | 0.00 | 0.14 | 0.14 | 99 | |
| 20260831154932 | 68 | 338 | 0.0 | 0.0 | 0.00 | 0.14 | 0.14 | 99 | |
| 20260831154428 | 68 | 343 | 0.0 | 0.0 | 0.00 | 0.14 | 0.14 | 99 | |
| 20260831153927 | 68 | 0 | 0.0 | 1.0 | 0.00 | 0.14 | 0.14 | 99 | |
| 20260831153423 | 68 | 325 | 1.0 | 1.0 | 0.00 | 0.14 | 0.14 | 99 | |
| 20260831152919 | 68 | 295 | 0.0 | 2.0 | 0.00 | 0.14 | 0.14 | 99 | |
| 20260831152414 | 68 | 358 | 0.0 | 1.0 | 0.00 | 0.14 | 0.14 | 99 | |
| 20260831151909 | 68 | 334 | 0.0 | 3.0 | 0.00 | 0.14 | 0.14 | 99 | |
| 20260831151408 | 68 | 16 | 0.0 | 2.0 | 0.00 | 0.14 | 0.14 | 99 | |
| 20260831150904 | 68 | 294 | 3.0 | 3.0 | 0.00 | 0.14 | 0.14 | 99 | |
| 20260831150359 | 68 | 326 | 0.0 | 3.0 | 0.00 | 0.14 | 0.14 | 99 | |
| 20260831145858 | 68 | 2 | 0.0 | 1.0 | 0.00 | 0.14 | 0.14 | 99 | |
| 20260831145355 | 68 | 334 | 0.0 | 2.0 | 0.00 | 0.14 | 0.14 | 99 | |
| 20260831144850 | 67 | 349 | 0.0 | 2.0 | 0.00 | 0.14 | 0.14 | 99 | |
| 20260831144346 | 67 | 43 | 0.0 | 3.0 | 0.00 | 0.14 | 0.14 | 99 | |
| 20260831143841 | 67 | 308 | 1.0 | 3.0 | 0.00 | 0.14 | 0.14 | 99 | |
| 20260831143336 | 67 | 345 | 0.0 | 2.0 | 0.00 | 0.14 | 0.14 | 99 | |
| 20260831142831 | 67 | 334 | 0.0 | 0.0 | 0.00 | 0.14 | 0.14 | 99 | |
| 20260831142326 | 67 | 337 | 0.0 | 1.0 | 0.00 | 0.14 | 0.14 | 99 | |
| 20260831141820 | 67 | 332 | 0.0 | 2.0 | 0.00 | 0.14 | 0.14 | 99 | |
| 20260831141315 | 67 | 295 | 1.0 | 3.0 | 0.00 | 0.14 | 0.14 | 99 | |
| 20260831140810 | 67 | 259 | 1.0 | 2.0 | 0.00 | 0.14 | 0.14 | 99 | |
| 20260831140304 | 67 | 327 | 2.0 | 3.0 | 0.00 | 0.14 | 0.14 | 99 | |
| 20260831135802 | 67 | 287 | 2.0 | 3.0 | 0.00 | 0.14 | 0.14 | 99 | |
| 20260831135258 | 66 | 268 | 2.0 | 3.0 | 0.00 | 0.14 | 0.14 | 99 | |
| 20260831134753 | 66 | 333 | 0.0 | 2.0 | 0.00 | 0.14 | 0.14 | 99 | |
| 20260831134250 | 66 | 326 | 0.0 | 1.0 | 0.00 | 0.14 | 0.14 | 99 | |
| 20260831133748 | 66 | 261 | 2.0 | 3.0 | 0.00 | 0.14 | 0.14 | 99 | |
| 20260831133243 | 66 | 326 | 1.0 | 1.0 | 0.00 | 0.14 | 0.14 | 99 | |
| 20260831132738 | 66 | 300 | 0.0 | 3.0 | 0.00 | 0.14 | 0.14 | 99 | |
| 20260831132233 | 66 | 254 | 1.0 | 2.0 | 0.00 | 0.14 | 0.14 | 99 | |
| 20260831131732 | 66 | 318 | 0.0 | 1.0 | 0.00 | 0.14 | 0.14 | 99 | |
| 20260831131229 | 66 | 275 | 2.0 | 3.0 | 0.07 | 0.14 | 0.14 | 99 | |
| 20260831130724 | 66 | 322 | 1.0 | 5.0 | 0.07 | 0.14 | 0.14 | 99 | |
| 20260831130220 | 66 | 313 | 1.0 | 3.0 | 0.00 | 0.13 | 0.13 | 99 | |
| 20260831125718 | 66 | 235 | 0.0 | 1.0 | 0.00 | 0.13 | 0.13 | 99 | |
| 20260831125214 | 66 | 329 | 0.0 | 2.0 | 0.00 | 0.13 | 0.13 | 99 | |
| 20260831124709 | 66 | 306 | 1.0 | 2.0 | 0.00 | 0.13 | 0.13 | 99 | |
| 20260831124206 | 66 | 286 | 0.0 | 0.0 | 0.07 | 0.13 | 0.13 | 99 | |
| 20260831123705 | 66 | 295 | 1.0 | 2.0 | 0.07 | 0.13 | 0.13 | 99 | |
| 20260831123204 | 66 | 296 | 0.0 | 1.0 | 0.00 | 0.12 | 0.12 | 99 | |
| 20260831122703 | 66 | 319 | 0.0 | 1.0 | 0.00 | 0.12 | 0.12 | 99 | |
| 20260831110312 | 66 | 312 | 0.0 | 0.0 | 0.00 | 0.12 | 0.12 | 99 | |
| 20260831105811 | 66 | 312 | 0.0 | 0.0 | 0.00 | 0.12 | 0.12 | 99 | |
| 20260831105307 | 66 | 327 | 0.0 | 0.0 | 0.00 | 0.12 | 0.12 | 99 | |
| 20260831104807 | 66 | 128 | 0.0 | 0.0 | 0.00 | 0.12 | 0.12 | 99 | |
| 20260831104303 | 66 | 333 | 0.0 | 0.0 | 0.00 | 0.12 | 0.12 | 99 | |
| 20260831103758 | 66 | 353 | 0.0 | 0.0 | 0.00 | 0.12 | 0.12 | 99 | |
| 20260831103253 | 66 | 318 | 0.0 | 1.0 | 0.00 | 0.12 | 0.12 | 99 | |
| 20260831102748 | 66 | 302 | 0.0 | 2.0 | 0.00 | 0.12 | 0.12 | 99 | |
| 20260831102242 | 66 | 331 | 0.0 | 0.0 | 0.00 | 0.12 | 0.12 | 99 | |
| 20260831101738 | 66 | 302 | 0.0 | 2.0 | 0.00 | 0.12 | 0.12 | 99 | |
| 20260831101233 | 66 | 357 | 0.0 | 0.0 | 0.00 | 0.12 | 0.12 | 99 | |
| 20260831100729 | 66 | 335 | 0.0 | 2.0 | 0.00 | 0.12 | 0.12 | 99 | |
| 20260831100219 | 66 | 326 | 1.0 | 2.0 | 0.00 | 0.12 | 0.12 | 99 | |
| 20260831095718 | 66 | 299 | 0.0 | 1.0 | 0.00 | 0.12 | 0.12 | 99 | |
| 20260831095213 | 66 | 326 | 1.0 | 2.0 | 0.00 | 0.12 | 0.12 | 99 | |
| 20260831094708 | 66 | 258 | 2.0 | 3.0 | 0.05 | 0.12 | 0.12 | 99 | |
| 20260831094204 | 66 | 325 | 0.0 | 2.0 | 0.05 | 0.12 | 0.12 | 99 | |
| 20260831093700 | 66 | 299 | 1.0 | 2.0 | 0.00 | 0.11 | 0.11 | 99 | |
| 20260831093155 | 66 | 341 | 1.0 | 1.0 | 0.00 | 0.11 | 0.11 | 99 | |
| 20260831092651 | 66 | 301 | 1.0 | 2.0 | 0.00 | 0.11 | 0.11 | 99 | |
| 20260831092147 | 66 | 255 | 2.0 | 2.0 | 0.00 | 0.11 | 0.11 | 99 | |
| 20260831091646 | 66 | 302 | 1.0 | 2.0 | 0.00 | 0.11 | 0.11 | 99 | |
| 20260831091142 | 66 | 176 | 3.0 | 3.0 | 0.00 | 0.11 | 0.11 | 99 | |
| 20260831090637 | 66 | 338 | 0.0 | 0.0 | 0.00 | 0.11 | 0.11 | 99 | |
| 20260831090133 | 66 | 344 | 0.0 | 2.0 | 0.00 | 0.11 | 0.11 | 99 | |
| 20260831085628 | 66 | 282 | 1.0 | 2.0 | 0.00 | 0.11 | 0.11 | 99 | |
| 20260831085123 | 66 | 340 | 0.0 | 1.0 | 0.00 | 0.11 | 0.11 | 99 | |
| 20260831084619 | 66 | 337 | 0.0 | 1.0 | 0.00 | 0.11 | 0.11 | 99 | |
| 20260831084115 | 66 | 294 | 1.0 | 2.0 | 0.00 | 0.11 | 0.11 | 99 | |
| 20260831083611 | 66 | 319 | 1.0 | 2.0 | 0.00 | 0.11 | 0.11 | 99 | |
| 20260831083106 | 66 | 353 | 0.0 | 1.0 | 0.00 | 0.11 | 0.11 | 99 | |
| 20260831082605 | 65 | 327 | 1.0 | 3.0 | 0.00 | 0.11 | 0.11 | 99 | |
| 20260831082100 | 66 | 310 | 1.0 | 2.0 | 0.00 | 0.11 | 0.11 | 99 | |
| 20260831081556 | 66 | 281 | 2.0 | 3.0 | 0.00 | 0.11 | 0.11 | 99 | |
| 20260831081051 | 66 | 205 | 1.0 | 2.0 | 0.00 | 0.11 | 0.11 | 99 | |
| 20260831080546 | 66 | 343 | 0.0 | 0.0 | 0.00 | 0.11 | 0.11 | 99 | |
| 20260831080041 | 66 | 177 | 1.0 | 3.0 | 0.00 | 0.11 | 0.11 | 99 | |
| 20260831075536 | 66 | 325 | 0.0 | 1.0 | 0.00 | 0.11 | 0.11 | 99 | |
| 20260831075032 | 66 | 340 | 0.0 | 2.0 | 0.00 | 0.11 | 0.11 | 99 | |
| 20260831074532 | 66 | 323 | 0.0 | 1.0 | 0.00 | 0.11 | 0.11 | 99 | |
| 20260831074031 | 66 | 351 | 0.0 | 2.0 | 0.00 | 0.11 | 0.11 | 99 | |
| 20260831073526 | 66 | 314 | 0.0 | 1.0 | 0.00 | 0.11 | 0.11 | 99 | |
| 20260831073025 | 66 | 336 | 1.0 | 2.0 | 0.00 | 0.11 | 0.11 | 99 | |
| 20260831072521 | 66 | 298 | 3.0 | 3.0 | 0.07 | 0.11 | 0.11 | 99 | |
| 20260831072017 | 66 | 267 | 2.0 | 3.0 | 0.07 | 0.11 | 0.11 | 99 | |
| 20260831071515 | 66 | 302 | 1.0 | 3.0 | 0.05 | 0.10 | 0.10 | 99 | |
| 20260831071011 | 66 | 302 | 4.0 | 5.0 | 0.12 | 0.10 | 0.10 | 99 | |
| 20260831070509 | 66 | 273 | 2.0 | 3.0 | 0.07 | 0.09 | 0.09 | 99 | |
| 20260831070005 | 66 | 290 | 1.0 | 2.0 | 0.00 | 0.08 | 0.08 | 99 | |
| 20260831065503 | 66 | 315 | 0.0 | 3.0 | 0.05 | 0.08 | 0.08 | 99 | |
| 20260831064958 | 66 | 293 | 2.0 | 2.0 | 0.05 | 0.08 | 0.08 | 99 | |
| 20260831064453 | 66 | 298 | 1.0 | 2.0 | 0.00 | 0.07 | 0.07 | 99 | |
| 20260831063948 | 66 | 290 | 1.0 | 3.0 | 0.00 | 0.07 | 0.07 | 99 | |
| 20260831063444 | 66 | 320 | 0.0 | 2.0 | 0.00 | 0.07 | 0.07 | 99 | |
| 20260831062943 | 66 | 282 | 0.0 | 1.0 | 0.00 | 0.07 | 0.07 | 99 | |
| 20260831062439 | 66 | 338 | 0.0 | 2.0 | 0.07 | 0.07 | 0.07 | 99 | |
| 20260831061938 | 66 | 327 | 0.0 | 0.0 | 0.07 | 0.07 | 0.07 | 99 | |
| 20260831061437 | 66 | 336 | 0.0 | 2.0 | 0.00 | 0.06 | 0.06 | 99 | |
| 20260831060933 | 66 | 274 | 1.0 | 1.0 | 0.00 | 0.06 | 0.06 | 99 | |
| 20260831060433 | 66 | 327 | 0.0 | 2.0 | 0.05 | 0.06 | 0.06 | 99 | |
| 20260831055933 | 66 | 340 | 0.0 | 1.0 | 0.12 | 0.06 | 0.06 | 99 | |
| 20260831055428 | 66 | 335 | 0.0 | 0.0 | 0.12 | 0.05 | 0.05 | 99 | |
| 20260831054923 | 66 | 342 | 0.0 | 1.0 | 0.05 | 0.04 | 0.04 | 99 | |
| 20260831054418 | 66 | 340 | 0.0 | 0.0 | 0.00 | 0.03 | 0.03 | 99 | |
| 20260831053918 | 66 | 274 | 1.0 | 1.0 | 0.07 | 0.03 | 0.03 | 99 | |
| 20260831053415 | 66 | 327 | 0.0 | 2.0 | 0.14 | 0.03 | 0.03 | 99 | |
| 20260831052911 | 66 | 333 | 0.0 | 1.0 | 0.12 | 0.02 | 0.02 | 99 | |
| 20260831052410 | 66 | 329 | 1.0 | 2.0 | 0.05 | 0.01 | 0.01 | 99 | |
| 20260831051908 | 66 | 335 | 0.0 | 0.0 | 0.00 | 0.00 | 0.00 | 99 | |
| 20260831051407 | 66 | 277 | 0.0 | 1.0 | 0.00 | 0.00 | 0.00 | 99 | |
| 20260831050902 | 66 | 317 | 0.0 | 2.0 | 0.00 | 0.00 | 0.00 | 99 | |
| 20260831050356 | 66 | 331 | 0.0 | 0.0 | 0.00 | 0.00 | 0.00 | 99 | |
| 20260831045855 | 66 | 342 | 0.0 | 0.0 | 0.00 | 0.00 | 0.00 | 99 | |
| 20260831045349 | 66 | 338 | 0.0 | 2.0 | 0.00 | 0.00 | 0.00 | 99 | |
| 20260831044844 | 66 | 337 | 0.0 | 0.0 | 0.00 | 0.00 | 0.00 | 99 | |
| 20260831044339 | 66 | 336 | 0.0 | 0.0 | 0.00 | 0.00 | 0.00 | 99 | |
| 20260831043835 | 66 | 331 | 0.0 | 0.0 | 0.00 | 0.00 | 0.00 | 99 | |
| 20260831043335 | 66 | 43 | 0.0 | 0.0 | 0.00 | 0.00 | 0.00 | 99 | |
| 20260831042830 | 66 | 340 | 0.0 | 2.0 | 0.00 | 0.00 | 0.00 | 98 | |
| 20260831042329 | 66 | 253 | 1.0 | 3.0 | 0.00 | 0.00 | 0.00 | 98 | |
| 20260831041825 | 66 | 305 | 0.0 | 0.0 | 0.00 | 0.00 | 0.00 | 98 | |
| 20260831041324 | 66 | 247 | 2.0 | 3.0 | 0.00 | 0.00 | 0.00 | 98 | |
| 20260831040819 | 66 | 322 | 2.0 | 2.0 | 0.00 | 0.00 | 0.00 | 98 | |
| 20260831040318 | 66 | 332 | 0.0 | 1.0 | 0.00 | 0.00 | 0.00 | 98 | |
| 20260831035817 | 66 | 258 | 2.0 | 2.0 | 0.00 | 0.10 | 0.10 | 98 | |
| 20260831035315 | 66 | 253 | 1.0 | 1.0 | 0.00 | 0.10 | 0.10 | 98 | |
| 20260831034810 | 66 | 312 | 1.0 | 3.0 | 0.00 | 0.10 | 0.10 | 98 | |
| 20260831034305 | 66 | 336 | 1.0 | 2.0 | 0.00 | 0.10 | 0.10 | 98 | |
| 20260831033800 | 66 | 273 | 1.0 | 1.0 | 0.00 | 0.10 | 0.10 | 98 | |
| 20260831033255 | 66 | 294 | 1.0 | 2.0 | 0.00 | 0.10 | 0.10 | 98 | |
| 20260831032750 | 66 | 265 | 1.0 | 2.0 | 0.00 | 0.10 | 0.10 | 97 | |
| 20260831032245 | 66 | 318 | 0.0 | 2.0 | 0.00 | 0.10 | 0.10 | 97 | |
| 20260831031740 | 66 | 258 | 1.0 | 2.0 | 0.00 | 0.10 | 0.10 | 97 | |
| 20260831031240 | 66 | 324 | 1.0 | 1.0 | 0.00 | 0.10 | 0.10 | 97 | |
| 20260831030734 | 66 | 292 | 1.0 | 2.0 | 0.00 | 0.10 | 0.10 | 97 | |
| 20260831030233 | 66 | 254 | 1.0 | 2.0 | 0.00 | 0.10 | 0.10 | 97 | |
| 20260831025732 | 66 | 324 | 0.0 | 2.0 | 0.00 | 0.10 | 0.10 | 97 | |
| 20260831025227 | 66 | 334 | 0.0 | 1.0 | 0.00 | 0.10 | 0.10 | 97 | |
| 20260831024723 | 66 | 306 | 1.0 | 2.0 | 0.00 | 0.10 | 0.10 | 97 | |
| 20260831024221 | 66 | 246 | 2.0 | 2.0 | 0.00 | 0.10 | 0.10 | 97 | |
| 20260831023720 | 66 | 344 | 0.0 | 2.0 | 0.00 | 0.10 | 0.10 | 97 | |
| 20260831023219 | 66 | 344 | 0.0 | 1.0 | 0.00 | 0.10 | 0.10 | 97 | |
| 20260831022714 | 66 | 290 | 0.0 | 0.0 | 0.00 | 0.10 | 0.10 | 97 | |
| 20260831022209 | 66 | 317 | 0.0 | 1.0 | 0.00 | 0.10 | 0.10 | 97 | |
| 20260831021708 | 66 | 332 | 0.0 | 0.0 | 0.00 | 0.10 | 0.10 | 97 | |
| 20260831021158 | 66 | 329 | 0.0 | 2.0 | 0.00 | 0.10 | 0.10 | 97 | |
| 20260831020654 | 66 | 321 | 0.0 | 2.0 | 0.00 | 0.10 | 0.10 | 97 | |
| 20260831020154 | 66 | 285 | 0.0 | 2.0 | 0.00 | 0.10 | 0.10 | 97 | |
| 20260831015649 | 66 | 344 | 0.0 | 1.0 | 0.00 | 0.10 | 0.10 | 97 | |
| 20260831015149 | 66 | 354 | 0.0 | 1.0 | 0.00 | 0.10 | 0.10 | 97 | |
| 20260831014644 | 66 | 323 | 0.0 | 2.0 | 0.00 | 0.10 | 0.10 | 97 | |
| 20260831014139 | 66 | 297 | 1.0 | 1.0 | 0.00 | 0.10 | 0.10 | 96 | |
| 20260831013636 | 66 | 323 | 2.0 | 3.0 | 0.00 | 0.10 | 0.10 | 96 | |
| 20260831013135 | 66 | 327 | 0.0 | 2.0 | 0.00 | 0.10 | 0.10 | 96 | |
| 20260831012630 | 66 | 347 | 0.0 | 2.0 | 0.00 | 0.10 | 0.10 | 96 | |
| 20260831012125 | 66 | 28 | 0.0 | 1.0 | 0.00 | 0.10 | 0.10 | 96 | |
| 20260831011624 | 66 | 349 | 0.0 | 2.0 | 0.00 | 0.10 | 0.10 | 96 | |
| 20260831011120 | 66 | 346 | 0.0 | 2.0 | 0.00 | 0.10 | 0.10 | 96 | |
| 20260831010616 | 66 | 320 | 0.0 | 0.0 | 0.00 | 0.10 | 0.10 | 96 | |
| 20260831010111 | 66 | 6 | 0.0 | 1.0 | 0.00 | 0.10 | 0.10 | 95 | |
| 20260831005611 | 66 | 17 | 0.0 | 0.0 | 0.00 | 0.10 | 0.10 | 95 | |
| 20260831005106 | 66 | 305 | 0.0 | 1.0 | 0.00 | 0.10 | 0.10 | 95 | |
| 20260831004602 | 66 | 42 | 0.0 | 1.0 | 0.00 | 0.10 | 0.10 | 95 | |
| 20260831004057 | 66 | 248 | 0.0 | 1.0 | 0.00 | 0.10 | 0.10 | 95 | |
| 20260831003554 | 66 | 331 | 0.0 | 2.0 | 0.00 | 0.10 | 0.10 | 95 | |
| 20260831003049 | 66 | 347 | 0.0 | 1.0 | 0.00 | 0.10 | 0.10 | 95 | |
| 20260831002548 | 66 | 318 | 0.0 | 1.0 | 0.00 | 0.10 | 0.10 | 95 | |
| 20260831002043 | 66 | 340 | 0.0 | 2.0 | 0.00 | 0.10 | 0.10 | 95 | |
| 20260831001538 | 66 | 1 | 0.0 | 3.0 | 0.00 | 0.10 | 0.10 | 95 | |
| 20260831001035 | 66 | 335 | 0.0 | 1.0 | 0.00 | 0.10 | 0.10 | 95 | |
| 20260831000531 | 67 | 328 | 1.0 | 1.0 | 0.00 | 0.10 | 0.10 | 95 | |
| 20260831000030 | 67 | 343 | 0.0 | 0.0 | 0.00 | 0.10 | 0.10 | 95 | |
| 20260830235524 | 67 | 349 | 0.0 | 1.0 | 0.00 | 0.10 | 0.10 | 95 | |
| 20260830235019 | 67 | 351 | 0.0 | 0.0 | 0.00 | 0.10 | 0.10 | 94 | |
| 20260830234514 | 67 | 310 | 0.0 | 2.0 | 0.00 | 0.10 | 0.10 | 94 | |
| 20260830234009 | 67 | 355 | 0.0 | 0.0 | 0.00 | 0.10 | 0.10 | 94 | |
| 20260830233505 | 67 | 13 | 0.0 | 1.0 | 0.00 | 0.10 | 0.10 | 94 | |
| 20260830233001 | 67 | 3 | 1.0 | 1.0 | 0.00 | 0.10 | 0.10 | 94 | |
| 20260830232456 | 67 | 353 | 0.0 | 1.0 | 0.00 | 0.10 | 0.10 | 94 | |
| 20260830231952 | 67 | 349 | 0.0 | 2.0 | 0.00 | 0.10 | 0.10 | 94 | |
| 20260830231448 | 67 | 358 | 0.0 | 1.0 | 0.00 | 0.10 | 0.10 | 94 | |
| 20260830230947 | 67 | 17 | 0.0 | 0.0 | 0.00 | 0.10 | 0.10 | 94 | |
| 20260830230442 | 67 | 358 | 0.0 | 2.0 | 0.00 | 0.10 | 0.10 | 94 | |
| 20260830225941 | 67 | 10 | 0.0 | 1.0 | 0.00 | 0.10 | 0.10 | 94 | |
| 20260830225438 | 67 | 296 | 0.0 | 0.0 | 0.00 | 0.10 | 0.10 | 94 | |
| 20260830224937 | 67 | 355 | 0.0 | 0.0 | 0.00 | 0.10 | 0.10 | 94 | |
| 20260830224435 | 67 | 357 | 0.0 | 1.0 | 0.00 | 0.10 | 0.10 | 94 | |
| 20260830223932 | 67 | 358 | 0.0 | 2.0 | 0.00 | 0.10 | 0.10 | 94 | |
| 20260830223429 | 67 | 309 | 0.0 | 1.0 | 0.00 | 0.10 | 0.10 | 94 | |
| 20260830222928 | 67 | 359 | 0.0 | 2.0 | 0.00 | 0.10 | 0.10 | 94 |